RH
52 61 69 25 17 22 27 25 21 45 36 55 87 84 71 65 63 57 53 25 9 10 29 44 21 25 24 16 13 5 4 3 4 7 6 6 5 5 7 10 7 4 3 2 2
35 61 62 71 42 34 28 25 24 22 36 34 53 85 76 74 78 72 53 58 29 9 12 35 41 20 25 25 23 21 8 4 4 6 8 10 9 10 10 8 13 22 19 10 6
24 45 60 52 72 53 33 34 27 21 25 34 30 55 73 62 76 77 75 60 59 35 10 14 39 42 24 24 23 22 24 15 8 8 10 13 14 11 13 17 21 28 25 21 19
29 34 53 51 40 72 69 39 27 19 18 23 29 27 61 75 44 61 70 72 66 65 44 10 17 42 46 25 20 24 23 23 19 19 19 18 17 15 12 20 21 28 34 37 31
37 32 58 64 45 43 45 45 42 30 21 15 15 16 18 40 39 36 49 66 74 70 74 47 10 22 48 46 29 16 20 26 24 23 27 29 22 15 11 27 23 32 39 39 37
42 42 39 68 60 48 48 31 35 36 24 26 22 16 11 17 27 20 18 43 65 77 78 92 44 11 22 49 48 30 26 28 24 22 28 28 29 26 14 21 26 30 38 39 36
20 45 46 54 82 65 37 44 40 29 21 15 20 22 17 18 12 14 16 15 40 62 80 86 93 52 17 24 47 52 39 33 26 27 31 34 30 27 29 21 25 29 30 35 36
36 22 55 53 84 99 86 36 37 41 26 19 16 13 19 18 18 17 16 16 14 38 63 77 90 95 54 20 27 43 50 48 42 44 47 47 30 35 32 30 27 28 28 28 31
18 36 30 64 70 100 99 98 42 34 33 21 19 15 17 18 21 19 18 18 18 18 43 64 74 88 91 72 27 24 32 40 43 46 49 49 43 38 38 36 32 32 31 30 28
18 18 36 38 76 87 98 100 99 48 34 28 20 24 25 17 18 23 23 19 18 18 22 45 59 74 85 92 94 80 48 35 39 39 40 43 47 48 45 52 56 47 47 57 42
27 17 20 37 50 90 94 98 98 69 34 40 44 49 46 34 23 21 21 21 19 17 16 22 38 50 73 100 92 83 86 90 60 46 46 47 48 47 45 49 57 62 64 59 37
38 20 13 32 36 100 94 85 93 100 88 74 57 59 67 54 35 28 21 18 16 16 20 18 15 42 46 61 72 84 82 88 96 91 80 68 60 54 51 53 62 68 39 39 26
22 35 14 11 46 94 87 77 100 100 100 88 76 79 69 60 52 39 31 22 18 17 16 15 21 43 39 37 41 54 71 78 73 77 68 71 71 72 68 61 61 68 40 33 28
24 31 25 10 26 64 73 100 90 98 100 76 61 60 61 50 45 47 37 34 25 22 24 18 21 24 39 42 40 26 64 60 60 57 64 65 52 67 79 79 83 85 31 41 68
22 31 34 13 10 43 40 98 99 100 100 73 62 60 65 57 51 56 56 38 26 31 26 20 25 24 30 49 47 46 60 60 50 47 40 47 53 45 68 72 69 65 65 76 76
19 28 32 19 11 30 100 100 98 100 92 72 61 54 55 40 46 66 52 40 39 36 28 27 35 36 37 46 35 32 39 56 58 62 32 54 63 41 72 69 75 80 84 85 75
15 23 32 22 12 22 56 99 98 98 78 54 43 44 49 53 53 62 60 46 40 38 27 33 31 30 38 48 46 43 47 54 56 64 52 64 62 59 70 70 72 71 73 80 78
6 17 26 28 11 16 98 98 98 86 72 51 41 55 59 66 61 67 66 55 48 46 49 51 47 41 36 44 49 62 71 72 63 54 49 56 51 56 64 67 68 68 69 75 83
4 11 22 22 15 57 100 100 97 75 91 73 72 72 60 67 55 57 60 53 54 52 53 55 50 46 50 68 80 78 73 83 68 55 43 39 42 54 68 73 71 69 71 72 72
8 6 17 11 9 74 100 91 77 89 100 67 72 67 67 68 63 62 64 49 45 46 54 55 52 54 65 68 66 68 76 74 74 64 55 48 45 51 76 82 80 66 52 50 53
32 5 8 7 72 100 95 56 64 98 100 84 74 62 71 75 76 78 75 59 57 66 80 73 66 62 66 56 70 69 62 70 81 72 67 54 51 71 81 81 79 63 61 65 62
75 8 6 5 59 100 92 49 73 100 89 64 74 90 85 88 85 92 71 75 78 79 77 92 84 68 63 68 77 77 79 85 75 66 71 68 49 79 74 77 69 82 86 90 94
81 40 18 10 45 94 80 75 60 100 95 92 84 83 90 93 96 96 82 82 68 67 67 74 65 62 60 67 68 74 86 100 99 95 77 79 63 91 85 79 82 82 92 95 77
85 75 35 17 57 40 100 70 73 62 81 99 99 99 100 99 88 97 86 76 83 79 87 80 65 61 60 70 85 74 91 100 99 84 88 73 78 90 97 92 87 91 96 98 88
95 100 77 13 30 96 70 72 92 85 64 99 98 96 95 95 91 96 87 76 86 88 83 70 57 57 65 78 72 68 72 74 65 73 75 75 73 86 98 92 93 94 92 78 78
100 100 100 15 47 97 100 100 89 100 81 97 85 95 100 87 76 90 85 76 74 80 73 63 61 69 75 75 72 66 71 76 74 70 66 79 71 99 88 84 88 95 95 82 82
100 100 98 27 94 100 100 72 44 94 78 100 98 94 97 90 100 100 99 99 99 90 93 82 80 78 66 71 68 50 68 76 74 78 87 84 98 95 87 96 89 85 80 84 89
Wind_Speed
48 48 46 46 49 48 46 44 43 41 39 39 40 41 40 39 37 34 34 28 26 26 24 21 20 18 15 13 12 11 9 8 7 5 3 3 4 4 4 6 7 7 7 7 8
53 49 50 47 47 46 46 47 45 44 41 39 40 42 41 39 38 38 36 33 29 27 27 26 23 22 20 17 15 12 12 11 11 10 9 7 7 6 6 7 8 9 10 11 12
56 55 49 51 48 48 48 45 45 47 44 43 40 42 43 41 38 40 35 36 34 31 30 30 27 24 23 22 20 17 15 14 14 14 14 12 11 10 10 11 9 11 11 12 13
57 56 53 51 53 50 48 48 46 44 46 45 43 43 45 42 39 39 36 37 37 35 32 32 31 28 27 25 25 23 20 18 18 18 18 15 15 16 15 15 13 13 13 15 15
58 57 52 51 53 54 52 49 47 47 45 44 43 44 45 43 44 43 40 37 37 39 37 34 34 33 31 29 28 27 26 23 21 21 20 18 18 16 18 19 17 16 15 16 17
59 59 59 51 51 53 53 51 49 48 47 45 43 43 43 41 47 45 43 41 39 38 38 37 37 36 36 34 33 30 28 26 24 25 22 22 20 17 22 19 21 21 20 19 19
60 60 58 56 46 49 54 52 49 50 48 48 47 45 42 42 42 46 46 42 43 40 38 40 39 40 38 39 36 33 31 29 28 27 24 25 22 25 21 22 24 24 25 24 23
60 60 59 57 47 46 50 54 53 51 51 49 48 46 40 44 39 39 43 43 44 45 43 42 42 43 40 40 38 36 33 31 32 29 27 27 24 28 25 24 25 26 26 27 27
60 61 60 58 57 49 45 47 54 54 52 50 49 46 40 43 39 42 39 39 45 45 47 45 44 45 43 41 40 37 36 35 35 33 33 32 29 33 29 28 28 28 30 30 30
62 60 60 60 58 51 55 46 47 53 54 51 50 48 42 43 44 41 39 38 40 46 47 47 45 45 44 40 40 43 43 40 38 40 41 38 32 35 34 31 29 30 34 37 35
64 62 59 59 57 55 57 51 52 52 52 50 46 44 40 43 44 44 42 40 39 41 46 46 44 41 36 41 46 48 46 44 41 43 45 42 40 36 39 34 32 34 36 37 38
65 64 61 60 58 51 57 53 48 52 50 49 48 47 45 45 45 44 44 43 41 39 38 42 46 33 40 42 46 47 47 40 42 47 50 47 45 40 42 41 39 39 37 41 41
66 66 64 60 58 50 58 47 52 54 54 53 51 46 47 47 46 46 46 44 43 42 40 39 33 36 42 43 43 43 43 43 45 47 51 49 45 42 44 46 44 41 39 40 42
66 68 68 65 60 59 53 47 52 53 55 56 53 48 50 50 49 47 47 45 44 41 39 42 40 38 40 42 43 46 37 41 44 48 48 49 53 42 42 43 49 43 38 40 47
70 71 71 69 63 60 54 41 48 52 59 58 52 49 48 49 44 44 44 45 45 41 42 42 38 38 39 35 39 40 40 43 45 46 47 46 49 45 34 37 39 41 44 45 45
75 74 75 72 64 58 55 56 54 62 65 58 53 49 45 48 48 44 47 46 44 43 44 43 40 41 39 38 41 42 41 40 42 41 48 41 43 48 36 37 39 41 42 39 37
80 79 78 73 65 63 69 66 62 70 58 55 52 44 42 41 45 42 44 44 43 42 42 40 38 37 37 37 39 39 37 41 43 44 44 40 42 38 33 32 32 35 38 37 38
82 83 80 74 71 68 73 62 68 63 58 53 50 46 44 39 42 41 42 46 44 43 41 39 39 36 35 33 34 37 40 44 45 45 44 43 44 37 29 30 34 34 35 35 37
74 86 82 78 77 76 75 85 71 59 55 49 47 51 46 43 37 39 38 41 40 40 40 37 36 35 35 36 38 41 44 40 45 47 48 45 41 38 28 31 31 27 26 27 28
59 85 85 83 82 76 78 87 72 67 56 57 52 48 44 39 36 37 34 34 36 37 36 36 37 37 38 39 42 44 42 43 45 47 47 46 42 36 29 30 28 27 25 24 26
46 79 83 84 87 86 78 84 82 67 60 56 53 49 42 39 35 32 31 31 30 30 32 35 36 35 36 37 37 41 44 44 44 48 48 47 42 36 29 26 26 25 26 27 29
31 70 79 85 94 79 76 82 84 58 55 62 58 52 44 38 36 32 31 30 30 34 36 32 35 35 33 36 38 40 43 44 45 45 45 46 43 29 25 24 25 28 31 34 36
31 48 66 83 97 91 79 80 87 69 60 62 56 52 46 40 38 35 33 33 36 37 38 35 37 36 34 33 32 32 36 41 42 44 46 46 41 24 24 21 23 25 31 29 24
28 36 55 83 90 94 76 85 82 82 69 59 56 50 45 45 39 37 34 34 34 36 36 36 36 33 29 29 28 31 30 33 38 42 41 39 32 26 27 28 32 32 33 31 29
23 25 41 77 90 88 91 83 75 73 77 57 60 55 52 47 44 40 39 39 35 31 33 31 29 26 22 25 28 31 33 36 37 35 38 31 30 21 29 33 31 35 38 32 28
35 30 32 72 94 87 84 81 76 70 75 61 60 49 47 46 40 36 34 36 34 26 28 27 23 20 22 20 22 25 29 34 36 35 35 29 27 24 28 29 32 33 35 33 31
28 35 40 71 92 96 73 81 82 64 71 56 59 52 47 42 41 33 34 32 34 35 32 30 23 23 21 22 25 29 18 22 24 25 21 28 21 25 27 32 35 34 34 32 33
Wind_Direction
241 241 242 242 242 241 240 236 237 233 231 232 229 232 235 236 236 233 234 234 230 230 225 228 227 226 225 224 220 209 197 199 218 227 216 201 184 192 224 272 290 288 278 275 278
242 239 239 240 242 242 242 239 236 236 235 233 233 231 230 233 236 234 234 234 234 230 230 227 228 228 228 225 224 223 215 211 218 230 236 239 240 240 236 249 265 278 287 288 286
244 243 238 239 241 241 241 242 238 236 235 235 233 234 230 229 232 236 235 235 234 232 231 230 228 228 229 230 228 222 227 222 225 229 236 241 249 254 257 256 259 274 279 278 282
243 243 243 240 241 239 241 241 240 239 239 236 235 236 233 231 234 236 235 233 233 231 233 233 228 228 231 231 233 233 228 229 231 235 239 239 245 250 257 254 258 261 271 282 283
240 242 241 240 238 240 240 241 240 240 240 238 236 237 236 233 234 232 236 236 234 232 229 234 233 228 231 231 233 236 233 232 234 239 244 247 248 251 260 254 260 262 265 274 281
237 237 240 242 238 238 240 240 241 240 241 242 238 236 236 233 234 234 233 236 239 236 232 230 235 231 230 232 233 236 237 235 238 241 245 251 252 259 258 260 262 263 266 271 274
237 235 235 238 243 245 241 240 240 240 241 240 240 237 235 235 233 235 234 234 237 240 235 233 233 237 232 234 234 235 239 237 239 242 242 247 255 255 258 259 262 264 265 268 271
237 235 232 233 230 239 242 238 241 241 240 239 239 238 233 235 233 235 233 232 234 237 237 235 235 236 238 238 237 238 239 243 244 244 245 248 250 254 256 259 263 267 270 270 273
235 234 232 231 229 233 241 241 237 240 240 238 239 237 234 235 233 233 234 233 232 233 236 237 235 237 235 240 241 242 243 242 247 247 249 251 249 259 257 259 262 267 270 271 272
232 233 232 231 228 228 240 241 241 237 238 238 238 238 234 235 235 234 234 235 234 233 236 237 237 239 241 242 247 241 241 242 246 250 251 252 251 256 260 260 265 267 270 271 272
233 231 231 230 228 231 231 227 242 241 239 241 241 239 233 234 235 234 233 234 234 236 237 238 240 242 244 242 243 249 249 246 245 248 251 254 252 255 260 260 264 268 270 272 272
232 230 229 228 227 227 235 233 230 245 243 240 238 234 232 230 233 234 233 233 235 238 239 240 242 243 242 244 246 247 252 256 254 257 259 254 255 251 254 259 261 267 269 270 271
227 229 227 227 224 215 230 234 235 239 243 241 239 232 234 231 229 232 234 234 233 235 238 242 241 240 242 243 246 250 254 254 256 257 261 261 257 257 259 261 263 261 264 269 272
223 223 224 224 222 215 217 232 234 236 243 242 240 236 234 234 232 233 235 236 236 237 240 242 239 237 242 246 249 251 256 255 255 257 258 262 265 258 261 264 264 262 264 266 271
221 220 221 220 220 217 211 229 231 232 238 241 238 239 235 237 235 235 238 239 238 238 240 245 243 244 244 249 251 253 254 257 259 262 263 262 266 265 255 258 258 260 263 268 268
221 218 217 217 216 212 206 218 229 226 227 236 238 238 234 236 235 228 233 236 238 235 236 238 238 239 242 242 247 251 252 257 261 264 263 266 267 264 271 262 262 265 265 264 264
219 215 215 213 210 210 210 223 230 226 228 235 238 236 237 237 238 229 234 237 240 241 242 244 243 243 243 245 250 257 260 260 259 259 266 264 265 268 275 270 263 261 264 264 260
216 215 212 209 207 206 212 228 222 227 223 229 236 234 232 231 232 226 229 235 234 236 237 239 241 245 249 250 252 253 252 253 258 261 262 263 266 269 275 272 271 271 266 261 259
218 212 208 206 205 204 211 221 227 224 223 219 228 231 230 231 232 230 229 233 237 238 242 244 245 246 246 241 242 247 249 253 256 260 263 264 266 267 275 275 276 274 266 258 255
220 211 205 205 202 202 214 215 227 221 224 218 223 229 230 233 234 232 229 235 238 239 238 240 239 236 238 239 241 246 249 251 255 261 265 268 269 270 269 271 269 264 261 252 251
228 212 203 205 197 203 206 212 217 222 220 215 219 225 227 229 230 233 237 238 236 232 234 235 236 238 239 243 249 251 253 255 257 259 264 268 269 272 267 262 252 251 252 254 256
236 215 205 204 197 201 203 210 211 218 226 213 217 220 225 228 230 233 234 230 224 223 230 233 238 241 244 246 247 248 250 252 255 257 262 265 267 276 266 252 250 252 258 261 263
242 223 210 204 199 199 204 209 214 213 217 212 217 219 222 223 226 224 229 226 228 228 231 236 239 240 243 245 252 260 261 257 258 258 260 262 269 264 255 242 241 248 255 251 253
243 229 211 204 201 197 204 208 215 216 221 222 215 220 219 220 217 219 224 223 229 227 228 232 238 244 249 254 250 248 249 250 251 254 259 261 266 257 256 246 247 248 253 250 243
229 229 207 203 199 198 200 206 215 211 214 220 215 216 219 216 217 217 219 221 225 229 231 236 242 243 242 242 244 248 250 252 252 252 254 258 257 263 253 256 252 248 242 247 251
208 217 205 199 195 194 200 208 209 214 218 223 215 212 208 208 216 223 222 229 229 238 233 227 233 236 233 241 250 252 252 252 253 254 259 264 259 253 245 256 254 249 245 243 245
207 213 207 194 195 195 204 204 209 212 213 218 207 209 206 209 216 215 218 216 223 231 229 229 230 235 234 238 246 253 280 262 258 258 261 259 266 249 248 248 254 255 258 260 263